星链-31055 (STARLINK-31055 )

导读

STARLINK-31055是美国太空探索技术公司(SpaceX)星链(Starlink)互联网星座项目中的一颗低轨通信卫星,于2023年12月8日发射入轨。它运行在近地轨道,依托星链星座的激光通信与先进推进技术,旨在为全球尤其是偏远地区提供高速低延迟的宽带互联网服务,进一步拓展了星链网络的覆盖范围与服务能力,是SpaceX构建全球卫星互联网组网的重要组成部分。

Basic Information
目录编号:
58539
目录名称:
STARLINK-31055
国际标识:
2023-192J
轨道中心:
EARTH
卫星名称:
星链-31055
卫星全名:
星链-31055 (STARLINK-31055 )
卫星状态:
在轨 (已飞行923 天)
发射日期:
2023-12-08 UTC
国别 :
美国 (US)
星等 :
--
Orbit Information
数据来源 国际轨道数据 AOE轨道数据
星历时间 2026-06-18T00:06:45+0800
17小时前
查看轨道信息
2026-06-17T08:00:00+0800
1天前
查看轨道信息
半长轴 6840.894km 6840.831km
偏心率 0.0001547 0.0000966
轨道倾角 53.162° 53.162°
近地点辐角 106.595° 73.307°
升交点赤经 316.875° 320.016°
平近点角 253.522° 176.308°
近地点 461.698km 462.033km
远地点 463.816km 463.355km
周期 93.849分钟 93.848分钟
每日圈数 15.34382 15.344033
Detailed Information
固有亮度:
5
最大亮度:
0.3
卫星平台:
Starlink v2.0 mini
覆盖范围:
全球
运营商:
太空探索技术公司
运营商所在国:
美国
制造商(研发单位):
太空探索技术公司
制造商所在国:
美国
使用方式:
暂无
Satellite Introduction
星链(Starlink)计划是由太空探索技术公司(SpaceX)提出的一个巨型低轨卫星互联网星座项目,计划在2019年至2024年间在太空搭建由约1.2万颗卫星组成的“星链”网络,其中1584颗将部署在地球上空550千米处的近地轨道,并从2020年开始工作。该卫星仍在工作。
2D Orbit Map
3D Orbit Map
Orbit Altitude Analysis Chart
Orbit Inclination Analysis Chart
Orbit Comprehensive Analysis Chart
View Comprehensive Chart